Location: Moscow
(55.7500°N, 37.5830°E)
Time: 05:04:41
(UTC+03:00)

Envisat - Pass Details

Date: 25 October 2021
Orbit: 764 x 766 km, 98.2° (Epoch: 28 November)

Event Time Altitude Azimuth Distance (km) Brightness Sun altitude
Rises 06:36:34 0° 13° (NNE) 3,248 6.3 -6.9°
Reaches altitude 10° 06:38:56 10° 8° (N) 2,317 5.5 -6.5°
Maximum altitude 06:43:50 50° 295° (WNW) 981 3.2 -5.9°
Drops below altitude 10° 06:48:43 10° 221° (SW) 2,301 5.2 -5.2°
Sets 06:51:04 0° 216° (SW) 3,223 6.0 -4.9°
